Location: Ferintosh
(52.7647°N, 112.9692°W)
Time: 13:50:22
(UTC+00:00)

Transit 2A - Pass Details

Date: 18 May 2024
Orbit: 592 x 959 km, 66.7° (Epoch: 23 June)

Event Time Altitude Azimuth Distance (km) Brightness Sun altitude
Rises 08:48:29 0° 243° (WSW) 2,970 - -15.5°
Reaches altitude 10° 08:50:47 10° 251° (WSW) 2,109 - -15.4°
Exits shadow 08:50:59 11° 252° (WSW) 2,038 7.8 -15.4°
Maximum altitude 08:55:20 42° 323° (NW) 1,028 6.9 -15.1°
Drops below altitude 10° 09:00:24 10° 34° (NE) 2,343 9.8 -14.8°
Sets 09:03:05 0° 41° (NE) 3,340 10.8 -14.7°
